Location: Bidart
(43.4376°N, 1.5913°W)
Time: 17:48:24
(UTC+00:00)

USA 229 DEB - Pass Details

Date: 20 April 2026
Orbit: 844 x 1364 km, 63.4° (Epoch: 10 January)

Event Time Altitude Azimuth Distance (km) Brightness Sun altitude
Rises 20:56:34 0° 312° (NW) 3,770 8.2 -20.1°
Reaches altitude 10° 21:00:30 10° 335° (NNW) 2,928 7.0 -20.6°
Maximum altitude 21:04:22 15° 9° (N) 2,662 6.2 -21.1°
Drops below altitude 10° 21:08:29 10° 43° (NE) 3,143 6.1 -21.7°
Sets 21:12:57 0° 65° (ENE) 4,213 6.6 -22.3°
